Location: Wald
(31.7579°N, 86.6655°W)
Time: 12:21:47
(UTC+00:00)

Cosmos 1486 Rocket - Pass Details

Date: 14 July 2020
Orbit: 759 x 782 km, 74.1° (Epoch: 08 August)

Event Time Altitude Azimuth Distance (km) Brightness Sun altitude
Exits shadow 10:09:21 - 205° (SSW) 2,692 6.3 -8.7°
Reaches altitude 10° 10:10:20 10° 207° (SSW) 2,318 6.0 -8.5°
Maximum altitude 10:15:32 61° 288° (WNW) 873 4.1 -7.6°
Drops below altitude 10° 10:20:44 10° 9° (N) 2,315 7.1 -6.6°
Sets 10:23:09 0° 12° (NNE) 3,241 7.9 -6.2°
